Location: Newark
(20.0000°S, 47.0000°E)
Time: 19:04:20
(UTC+00:00)

OTV 5 (USA 277) - Visible Passes

Search period start: 17 June 2019 00:00
Search period end: 27 June 2019 00:00
Orbit: 310 x 325 km, 54.5° (Epoch: 08 May)

Date Brightness Start Highest point End Pass type
(mag) Time Alt. Az. Time Alt. Az. Time Alt. Az.
19 Jun ? 15:03:22 10° SSW 15:05:53 32° SE 15:08:23 10° ENE visible
20 Jun ? 15:17:58 10° SW 15:20:35 42° NW 15:23:10 10° NNE visible
21 Jun ? 15:34:52 10° WNW 15:35:08 10° WNW 15:35:25 10° NW visible
26 Jun ? 02:26:27 10° N 02:28:46 26° ENE 02:31:06 10° ESE visible
